Weather History for Del Rio, TX

Change the Weather History Date:

Thursday, June 20, 2013

  Actual Average Record
Temperature  
Mean Temperature 86 °F 85 °F  
Max Temperature 95 °F 95 °F 106 °F (1998)
Min Temperature 76 °F 74 °F 60 °F (1912)
Degree Days  
Heating Degree Days 0 0  
Month to date heating degree days 0 0  
Since 1 June heating degree days 0 0  
Since 1 July heating degree days 1013 1376  
Cooling Degree Days 21 20  
Month to date cooling degree days 397 371  
Year to date cooling degree days 1303 1130  
Since 1 June cooling degree days 397 371  
Growing Degree Days 36 (Base 50)    
Moisture  
Dew Point 69 °F    
Average Humidity 58    
Maximum Humidity 74    
Minimum Humidity 41    
Precipitation  
Precipitation 0.00 in 0.08 in 4.31 in (2014)
Month to date precipitation 1.65 1.67  
Year to date precipitation 4.87 8.87  
Sea Level Pressure  
Sea Level Pressure 29.90 in    
Wind  
Wind Speed 14 mph (SE)    
Max Wind Speed 23 mph    
Max Gust Speed 31 mph    
Visibility 10 miles    
Events      
T = Trace of Precipitation, MM = Missing Value Source: NWS Daily Summary

Daily Weather History Graph

Daily Weather History Graph

Search for Another Location

Airport:

Trip Planner

Search our weather history database for the weather conditions in past years. The results will help you decide how hot, cold, wet, or windy it might be!

Date:

Astronomy

Jun. 20, 2013 Rise Set
Actual Time 6:44 AM CDT 8:46 PM CDT
Civil Twilight 6:17 AM CDT 9:13 PM CDT
Nautical Twilight 5:44 AM CDT 9:46 PM CDT
Astronomical Twilight 5:08 AM CDT 10:21 PM CDT
Moon 5:58 PM CDT (6/20) 4:02 AM CDT (6/20)
Length of Visible Light 14h 56m
Length of Day
14h 01m
Waxing Gibbous, 89% of the Moon is Illuminated
Jun 20
Waxing Gibbous
Jun 23
Full
Jun 29
Last Quarter
Jul 8
New
Jul 15
First Quarter

Hourly Weather History & Observations

Time (CDT) Temp. Heat Index Dew Point Humidity Pressure Visibility Wind Dir Wind Speed Gust Speed Precip Events Conditions
12:53 AM 84.0 °F 87.8 °F 69.1 °F 61% 29.88 in 10.0 mi ESE 17.3 mph 21.9 mph N/A   Clear
1:53 AM 82.9 °F 87.0 °F 70.0 °F 65% 29.87 in 10.0 mi SE 12.7 mph - N/A   Clear
2:53 AM 82.0 °F 85.9 °F 70.0 °F 67% 29.86 in 10.0 mi SE 10.4 mph - N/A   Clear
3:53 AM 80.1 °F 83.2 °F 70.0 °F 71% 29.86 in 10.0 mi SE 9.2 mph - N/A   Clear
4:53 AM 79.0 °F - 68.0 °F 69% 29.86 in 10.0 mi SE 10.4 mph - N/A   Clear
5:53 AM 78.1 °F - 64.9 °F 64% 29.87 in 10.0 mi ESE 10.4 mph - N/A   Clear
6:53 AM 77.0 °F - 66.0 °F 69% 29.88 in 10.0 mi ESE 8.1 mph - N/A   Clear
7:53 AM 77.0 °F - 68.0 °F 74% 29.90 in 10.0 mi ESE 10.4 mph - N/A   Clear
8:15 AM 77.0 °F - 68.0 °F 74% 29.96 in 10.0 mi ESE 10.4 mph - N/A   Mostly Cloudy
8:53 AM 79.0 °F - 69.1 °F 72% 29.92 in 10.0 mi ESE 13.8 mph 24.2 mph N/A   Partly Cloudy
9:38 AM 78.8 °F - 69.8 °F 74% 29.99 in 10.0 mi SE 19.6 mph 25.3 mph N/A   Mostly Cloudy
9:53 AM 80.1 °F 83.2 °F 70.0 °F 71% 29.94 in 10.0 mi SE 17.3 mph 23.0 mph N/A   Mostly Cloudy
10:46 AM 82.4 °F 86.3 °F 69.8 °F 66% 30.00 in 10.0 mi SE 13.8 mph 24.2 mph N/A   Scattered Clouds
10:53 AM 84.0 °F 88.4 °F 70.0 °F 63% 29.95 in 10.0 mi SSE 17.3 mph - N/A   Partly Cloudy
11:13 AM 84.2 °F 88.4 °F 69.8 °F 62% 30.00 in 10.0 mi SE 13.8 mph - N/A   Mostly Cloudy
11:38 AM 86.0 °F 90.4 °F 69.8 °F 58% 30.00 in 10.0 mi SSE 19.6 mph 24.2 mph N/A   Scattered Clouds
11:53 AM 86.0 °F 90.7 °F 70.0 °F 59% 29.95 in 10.0 mi SE 15.0 mph 25.3 mph N/A   Partly Cloudy
12:53 PM 87.1 °F 91.3 °F 69.1 °F 55% 29.94 in 10.0 mi SE 13.8 mph 21.9 mph N/A   Scattered Clouds
1:53 PM 91.0 °F 95.6 °F 69.1 °F 48% 29.93 in 10.0 mi SE 15.0 mph 25.3 mph N/A   Mostly Cloudy
2:53 PM 91.0 °F 95.6 °F 69.1 °F 48% 29.90 in 10.0 mi ESE 17.3 mph 25.3 mph N/A   Scattered Clouds
3:53 PM 93.9 °F 98.6 °F 68.0 °F 43% 29.88 in 10.0 mi SE 18.4 mph 26.5 mph N/A   Mostly Cloudy
4:53 PM 93.0 °F 97.4 °F 68.0 °F 44% 29.87 in 10.0 mi SE 17.3 mph 26.5 mph N/A   Partly Cloudy
5:53 PM 93.9 °F 98.6 °F 68.0 °F 43% 29.85 in 10.0 mi SE 21.9 mph 29.9 mph N/A   Partly Cloudy
6:53 PM 93.0 °F 95.9 °F 66.0 °F 41% 29.83 in 10.0 mi SE 15.0 mph 28.8 mph N/A   Clear
7:53 PM 91.9 °F 95.4 °F 66.9 °F 44% 29.82 in 10.0 mi ESE 10.4 mph - N/A   Clear
8:53 PM 90.0 °F 93.6 °F 68.0 °F 48% 29.83 in 10.0 mi ESE 9.2 mph - N/A   Clear
9:53 PM 89.1 °F 92.9 °F 68.0 °F 50% 29.86 in 10.0 mi ESE 10.4 mph - N/A   Clear
10:53 PM 88.0 °F 91.4 °F 68.0 °F 51% 29.91 in 10.0 mi ESE 13.8 mph 21.9 mph N/A   Partly Cloudy
11:53 PM 86.0 °F 90.7 °F 70.0 °F 59% 29.92 in 10.0 mi ESE 15.0 mph 19.6 mph N/A   Clear